• In Moldova, Republic
  • List of Countries
  • For 7 days
  • Water Temperature
  • Satellite Maps
  • Weather Map
  • Weather Widgets
  • user-avatar
    Login

    Hourly Weather Konstantyna

    Today, 23 April, Monday

    Time Temperature Precipitation Wind Pressure Humidity
    00:00 +15°C° 0 mm 1 mps 711 mmHg 85%
    01:00 +15°C° 0 mm 1 mps 710 mmHg 84%
    02:00 +15°C° 0 mm 1 mps 710 mmHg 83%
    03:00 +15°C° 0 mm 1 mps 710 mmHg 82%
    04:00 +16°C° 0 mm 1 mps 710 mmHg 79%
    05:00 +16°C° 0 mm 1 mps 710 mmHg 77%
    06:00 +18°C° 0 mm 1 mps 710 mmHg 74%
    07:00 +21°C° 0 mm 1 mps 711 mmHg 65%
    08:00 +23°C° 0 mm 1 mps 711 mmHg 55%
    09:00 +25°C° 0 mm 1 mps 712 mmHg 46%
    10:00 +26°C° 0 mm 2 mps 712 mmHg 42%
    11:00 +27°C° 0 mm 2 mps 712 mmHg 39%
    12:00 +28°C° 0 mm 2 mps 712 mmHg 36%
    13:00 +28°C° 0 mm 2 mps 711 mmHg 37%
    14:00 +28°C° 0 mm 3 mps 711 mmHg 39%
    15:00 +28°C° 0 mm 3 mps 711 mmHg 41%
    16:00 +26°C° 0 mm 3 mps 710 mmHg 50%
    17:00 +24°C° 0 mm 3 mps 710 mmHg 60%
    18:00 +21°C° 0 mm 2 mps 710 mmHg 69%
    19:00 +20°C° 0 mm 2 mps 710 mmHg 73%
    20:00 +19°C° 0 mm 2 mps 710 mmHg 77%
    21:00 +18°C° 0 mm 1 mps 710 mmHg 81%
    22:00 +18°C° 0 mm 1 mps 710 mmHg 79%
    23:00 +18°C° 0 mm 1 mps 710 mmHg 78%

    Tomorrow, 24 April, Tuesday

    Time Temperature Precipitation Wind Pressure Humidity
    00:00 +18°C° 0 mm 1 mps 710 mmHg 77%
    01:00 +18°C° 0 mm 1 mps 710 mmHg 75%
    02:00 +18°C° 0 mm 1 mps 710 mmHg 74%
    03:00 +17°C° 0 mm 2 mps 709 mmHg 72%
    04:00 +17°C° 0 mm 2 mps 710 mmHg 70%
    05:00 +18°C° 0 mm 2 mps 710 mmHg 67%
    06:00 +19°C° 0 mm 2 mps 710 mmHg 65%
    07:00 +23°C° 0 mm 2 mps 711 mmHg 55%
    08:00 +25°C° 0 mm 2 mps 711 mmHg 46%
    09:00 +28°C° 0 mm 2 mps 712 mmHg 37%
    10:00 +29°C° 0 mm 2 mps 712 mmHg 34%
    11:00 +30°C° 0 mm 3 mps 712 mmHg 31%
    12:00 +31°C° 0 mm 3 mps 712 mmHg 27%
    13:00 +31°C° 0 mm 3 mps 711 mmHg 28%
    14:00 +31°C° 0 mm 3 mps 711 mmHg 29%
    15:00 +31°C° 0 mm 3 mps 710 mmHg 30%
    16:00 +29°C° 0 mm 3 mps 710 mmHg 38%
    17:00 +27°C° 0 mm 2 mps 710 mmHg 46%
    18:00 +24°C° 0 mm 2 mps 709 mmHg 55%
    19:00 +23°C° 0 mm 2 mps 709 mmHg 57%
    20:00 +21°C° 0 mm 2 mps 709 mmHg 60%
    21:00 +21°C° 0 mm 1 mps 709 mmHg 62%
    22:00 +21°C° 0 mm 1 mps 709 mmHg 59%
    23:00 +20°C° 0 mm 2 mps 709 mmHg 56%

    Day after tomorrow, 25 April, Wednesday

    Time Temperature Precipitation Wind Pressure Humidity
    00:00 +20°C° 0 mm 2 mps 709 mmHg 52%
    01:00 +19°C° 0 mm 2 mps 709 mmHg 50%
    02:00 +19°C° 0 mm 2 mps 708 mmHg 47%
    03:00 +19°C° 0 mm 2 mps 708 mmHg 45%
    04:00 +19°C° 0 mm 2 mps 708 mmHg 46%
    05:00 +20°C° 0 mm 2 mps 708 mmHg 48%
    06:00 +20°C° 0 mm 2 mps 708 mmHg 50%
    07:00 +23°C° 0 mm 2 mps 709 mmHg 45%
    08:00 +25°C° 0 mm 2 mps 709 mmHg 40%
    09:00 +27°C° 0 mm 2 mps 710 mmHg 35%
    10:00 +28°C° 0 mm 2 mps 710 mmHg 33%
    11:00 +29°C° 0 mm 3 mps 710 mmHg 31%
    12:00 +30°C° 0 mm 3 mps 710 mmHg 29%
    13:00 +29°C° 0 mm 3 mps 709 mmHg 36%
    14:00 +28°C° 0 mm 3 mps 709 mmHg 42%
    15:00 +27°C° 0 mm 3 mps 708 mmHg 48%
    16:00 +26°C° 0.1 mm 3 mps 708 mmHg 55%
    17:00 +24°C° 0.1 mm 3 mps 707 mmHg 61%
    18:00 +21°C° 0.1 mm 2 mps 707 mmHg 68%
    19:00 +20°C° 0.2 mm 2 mps 707 mmHg 70%
    20:00 +19°C° 0.2 mm 2 mps 707 mmHg 71%
    21:00 +18°C° 0.2 mm 2 mps 707 mmHg 73%
    22:00 +18°C° 0.3 mm 2 mps 706 mmHg 75%
    23:00 +17°C° 0.3 mm 2 mps 706 mmHg 77%

    26 April, Thursday

    Time Temperature Precipitation Wind Pressure Humidity
    00:00 +18°C° 0.3 mm 1 mps 705 mmHg 79%
    01:00 +16°C° 0.3 mm 2 mps 705 mmHg 80%
    02:00 +16°C° 0.3 mm 2 mps 705 mmHg 81%
    03:00 +16°C° 0.3 mm 2 mps 704 mmHg 82%
    04:00 +16°C° 0.1 mm 2 mps 704 mmHg 82%
    05:00 +16°C° 0.1 mm 2 mps 704 mmHg 83%
    06:00 +16°C° 0.1 mm 2 mps 704 mmHg 84%
    07:00 +17°C° 0.1 mm 2 mps 704 mmHg 76%
    08:00 +19°C° 0.1 mm 3 mps 704 mmHg 69%
    09:00 +21°C° 0.1 mm 3 mps 704 mmHg 61%
    10:00 +22°C° 0 mm 4 mps 704 mmHg 57%
    11:00 +25°C° 0 mm 4 mps 704 mmHg 53%
    12:00 +26°C° 0 mm 5 mps 703 mmHg 50%
    13:00 +25°C° 0.5 mm 5 mps 703 mmHg 55%
    14:00 +23°C° 0.5 mm 5 mps 702 mmHg 60%
    15:00 +22°C° 0.5 mm 5 mps 702 mmHg 66%
    16:00 +20°C° 2 mm 5 mps 702 mmHg 73%
    17:00 +19°C° 2 mm 5 mps 702 mmHg 80%
    18:00 +16°C° 2 mm 5 mps 702 mmHg 87%
    19:00 +17°C° 1.6 mm 4 mps 702 mmHg 90%
    20:00 +16°C° 1.6 mm 3 mps 703 mmHg 92%
    21:00 +15°C° 1.6 mm 2 mps 703 mmHg 94%
    22:00 +15°C° 0.5 mm 2 mps 703 mmHg 94%
    23:00 +15°C° 0.5 mm 2 mps 703 mmHg 95%

    27 April, Friday

    Time Temperature Precipitation Wind Pressure Humidity
    00:00 +15°C° 0.5 mm 2 mps 703 mmHg 95%
    01:00 +15°C° 0.1 mm 2 mps 703 mmHg 94%
    02:00 +14°C° 0.1 mm 3 mps 703 mmHg 94%
    03:00 +14°C° 0.1 mm 3 mps 703 mmHg 93%
    04:00 +14°C° 0.1 mm 3 mps 703 mmHg 92%
    05:00 +14°C° 0.1 mm 3 mps 703 mmHg 92%
    06:00 +14°C° 0.1 mm 3 mps 704 mmHg 91%
    07:00 +14°C° 0.1 mm 3 mps 704 mmHg 87%
    08:00 +16°C° 0.1 mm 3 mps 705 mmHg 83%
    09:00 +17°C° 0.1 mm 3 mps 705 mmHg 79%
    10:00 +17°C° 0 mm 4 mps 705 mmHg 74%
    11:00 +18°C° 0 mm 4 mps 705 mmHg 70%
    12:00 +19°C° 0 mm 4 mps 705 mmHg 66%
    13:00 +19°C° 0 mm 5 mps 705 mmHg 65%
    14:00 +19°C° 0 mm 5 mps 705 mmHg 63%
    15:00 +19°C° 0 mm 5 mps 705 mmHg 62%
    16:00 +18°C° 0 mm 4 mps 705 mmHg 66%
    17:00 +17°C° 0 mm 3 mps 705 mmHg 69%
    18:00 +16°C° 0 mm 2 mps 705 mmHg 73%
    19:00 +15°C° 0 mm 2 mps 706 mmHg 77%
    20:00 +14°C° 0 mm 1 mps 706 mmHg 80%
    21:00 +13°C° 0 mm 1 mps 706 mmHg 84%
    22:00 +12°C° 0 mm 1 mps 706 mmHg 85%
    23:00 +12°C° 0 mm 1 mps 706 mmHg 85%

    28 April, Saturday

    Time Temperature Precipitation Wind Pressure Humidity
    00:00 +12°C° 0 mm 1 mps 705 mmHg 86%
    01:00 +12°C° 0 mm 1 mps 705 mmHg 85%
    02:00 +11°C° 0 mm 1 mps 705 mmHg 84%
    03:00 +11°C° 0 mm 1 mps 705 mmHg 83%
    04:00 +12°C° 0 mm 1 mps 705 mmHg 79%
    05:00 +13°C° 0 mm 1 mps 705 mmHg 75%
    06:00 +14°C° 0 mm 1 mps 706 mmHg 71%
    07:00 +16°C° 0 mm 1 mps 706 mmHg 64%
    08:00 +17°C° 0 mm 0 mps 706 mmHg 56%
    09:00 +19°C° 0 mm 0 mps 707 mmHg 48%
    10:00 +22°C° 0 mm 1 mps 707 mmHg 46%
    11:00 +23°C° 0 mm 1 mps 707 mmHg 43%
    12:00 +24°C° 0 mm 2 mps 707 mmHg 41%
    13:00 +24°C° 0 mm 2 mps 706 mmHg 43%
    14:00 +24°C° 0 mm 2 mps 706 mmHg 45%
    15:00 +24°C° 0 mm 3 mps 706 mmHg 47%
    16:00 +21°C° 0.1 mm 3 mps 706 mmHg 56%
    17:00 +20°C° 0.1 mm 3 mps 706 mmHg 65%
    18:00 +18°C° 0.1 mm 3 mps 706 mmHg 74%
    19:00 +17°C° 0.1 mm 2 mps 706 mmHg 77%
    20:00 +15°C° 0.1 mm 2 mps 706 mmHg 81%
    21:00 +14°C° 0.1 mm 1 mps 706 mmHg 85%
    22:00 +14°C° 0 mm 1 mps 706 mmHg 84%
    23:00 +14°C° 0 mm 1 mps 706 mmHg 84%
    Show more